Regional Weather Roundup
Issued by NWS

Home | Current Version | Previous Version | Graphics & Text | Print | Product List | Glossary On
Versions: 1 2 3 4 5 6 7 8 9 10 11 12 13 14 15 16 17 18 19 20 21 22 23 24 25 26 27 28
000
ASUS45 KPSR 190610
RWRAZ

ARIZONA HOURLY REGIONAL WEATHER ROUNDUP
NATIONAL WEATHER SERVICE PHOENIX AZ
1100 PM MST SAT FEB 18 2017

NOTE: FAIR INDICATES FEW OR NO CLOUDS BELOW 12,000 FEET WITH NO
SIGNIFICANT WEATHER AND/OR OBSTRUCTIONS TO VISIBILITY.

AZZ001>003-036-190700-
NORTHWEST ARIZONA

CITY           SKY/WX    TMP DP  RH WIND       PRES   REMARKS
BULLHEAD CITY  PTCLDY    55  54  94 CALM      29.65R
KINGMAN        CLOUDY    47  43  86 N5        29.66S
6HR MIN TEMP:  47; 6HR MAX TEMP:  51; 6HR PCP:  0.01;

$$

AZZ004>008-015-016-018-190700-
NORTH CENTRAL ARIZONA

CITY           SKY/WX    TMP DP  RH WIND       PRES   REMARKS
GRAND CANYON   MOCLDY    34  34 100 CALM      29.72S
6HR MIN TEMP:  34; 6HR MAX TEMP:  41; 6HR PCP: TRACE;

WILLIAMS       CLOUDY    36  32  87 VRB3      29.71F
PRESCOTT       LGT RAIN  38  36  92 S5        29.72R WCI  34
6HR MIN TEMP:  38; 6HR MAX TEMP:  45; 6HR PCP:  0.09;

FLAGSTAFF      LGT SNOW  32  32 100 S8        29.73S FOG     WCI  25
6HR MIN TEMP:  32; 6HR MAX TEMP:  40; 6HR PCP:  0.07;

PAYSON         MIX PCPN  36  36 100 VRB6G12   29.79R WCI  31
PAGE           MOCLDY    44  38  79 CALM      29.68S
6HR MIN TEMP:  44; 6HR MAX TEMP:  50; 6HR PCP:  0.01;

$$

AZZ009>014-017-190700-
NORTHEAST ARIZONA

CITY           SKY/WX    TMP DP  RH WIND       PRES   REMARKS
WINSLOW        LGT RAIN  44  40  85 S20       29.73R
6HR MIN TEMP:  44; 6HR MAX TEMP:  57; 6HR PCP:  0.03;

SAINT JOHNS    CLOUDY    46  34  62 S15       29.74R
6HR MIN TEMP:  44; 6HR MAX TEMP:  55;

WINDOW ROCK    CLOUDY    38  29  70 CALM      29.76S
6HR MIN TEMP:  37; 6HR MAX TEMP:  52;

SHOW LOW       LGT SNOW  32  30  93 S8        29.76F WCI  25
$$

AZZ023-190700-
GREATER PHOENIX AREA

CITY           SKY/WX    TMP DP  RH WIND       PRES   REMARKS
PHOENIX        CLOUDY    51  48  89 E7        29.74R
6HR MIN TEMP:  50; 6HR MAX TEMP:  57; 6HR PCP:  0.13;

BUCKEYE        CLOUDY    50  50 100 E10       29.74R
LUKE AFB       LGT RAIN  52  52 100 E8        29.73R
6HR MIN TEMP:  52; 6HR MAX TEMP:  58; 6HR PCP:  0.23;

DEER VALLEY    LGT RAIN  49  49 100 E6        29.74R
6HR MIN TEMP:  49; 6HR MAX TEMP:  56; 6HR PCP:  0.24;

SCOTTSDALE     LGT RAIN  50  47  89 E6        29.78R
6HR MIN TEMP:  49; 6HR MAX TEMP:  56; 6HR PCP:  0.28;

MESA-GATEWAY   LGT RAIN  50  48  93 E3        29.77R
$$

AZZ027-028-190700-
SOUTHWEST MARICOPA COUNTY AND PINAL COUNTY

CITY           SKY/WX    TMP DP  RH WIND       PRES   REMARKS
CASA GRANDE    NOT AVBL
GILA BEND      CLOUDY    54  46  75 S10       29.72R
6HR MIN TEMP:  53; 6HR MAX TEMP:  55; 6HR PCP:  0.05;

$$

AZZ503-504-507>509-190700-
SOUTHEAST ARIZONA

CITY           SKY/WX    TMP DP  RH WIND       PRES   REMARKS
TUCSON         CLOUDY    50  38  63 S12       29.80R
6HR MIN TEMP:  50; 6HR MAX TEMP:  56;

DAVIS-MONTHAN  MOCLDY    49  38  65 SE9       29.79R
6HR MIN TEMP:  48; 6HR MAX TEMP:  53;

NOGALES        CLOUDY    41  38  89 S8        29.81R
6HR MIN TEMP:  41; 6HR MAX TEMP:  45; 6HR PCP: TRACE;

SIERRA VISTA   PTCLDY    40  34  80 W5        29.80S
6HR MIN TEMP:  38; 6HR MAX TEMP:  44; 6HR PCP:  0.02;

DOUGLAS        MOCLDY    40  36  86 SE8       29.84S WCI  34
6HR MIN TEMP:  39; 6HR MAX TEMP:  45; 6HR PCP:  0.03;

SAFFORD        CLOUDY    49  37  63 SE13      29.78R
6HR MIN TEMP:  48; 6HR MAX TEMP:  61; 6HR PCP: TRACE;

$$

AZZ020-021-025-026-031-190700-
SOUTHWEST ARIZONA

CITY           SKY/WX    TMP DP  RH WIND       PRES   REMARKS
YUMA           LGT RAIN  54  52  93 SW5       29.70R
6HR MIN TEMP:  54; 6HR MAX TEMP:  56; 6HR PCP:  0.05;

$$

CAZ031-033-041-043-047-048-061-190700-
SOUTHERN CALIFORNIA

CITY           SKY/WX    TMP DP  RH WIND       PRES   REMARKS
DOWNTOWN L.A.  PTCLDY    55  51  86 CALM      29.71R
6HR MIN TEMP:  54; 6HR MAX TEMP:  59;

L.A. AIRPORT   PTCLDY    55  51  86 CALM      29.72R
6HR MIN TEMP:  54; 6HR MAX TEMP:  58;

SAN DIEGO      LGT RAIN  56  51  84 W12       29.76R
6HR MIN TEMP:  56; 6HR MAX TEMP:  60; 6HR PCP:  0.04;

BURBANK        PTCLDY    51  48  89 W3        29.70R
6HR MIN TEMP:  51; 6HR MAX TEMP:  57; 6HR PCP: TRACE;

ONTARIO        CLOUDY    53  50  89 W7        29.72R
6HR MIN TEMP:  52; 6HR MAX TEMP:  57; 6HR PCP: TRACE;

RIVERSIDE      CLOUDY    53  51  93 W6        29.72R
6HR MIN TEMP:  52; 6HR MAX TEMP:  57; 6HR PCP: TRACE;

PALM SPRINGS   CLOUDY    55  55 100 SE3       29.71R
6HR MIN TEMP:  54; 6HR MAX TEMP:  59;

EL CENTRO NAS  PTCLDY    55  52  89 S9        29.70R
6HR MIN TEMP:  55; 6HR MAX TEMP:  58; 6HR PCP:  0.09;

IMPERIAL       CLOUDY    56  53  90 S10       29.68R
6HR MIN TEMP:  55; 6HR MAX TEMP:  57; 6HR PCP:  0.12;

BLYTHE         CLOUDY    54  54 100 S8        29.68R
6HR MIN TEMP:  54; 6HR MAX TEMP:  56; 6HR PCP:  0.15;

NEEDLES        MOCLDY    56  53  90 SE8       29.65R
6HR MIN TEMP:  56; 6HR MAX TEMP:  61; 6HR PCP:  0.04;

$$

NVZ020-UTZ003-190700-
SOUTHERN NEVADA-UTAH

CITY           SKY/WX    TMP DP  RH WIND       PRES   REMARKS
LAS VEGAS      MOCLDY    51  48  89 E3        29.64R
6HR MIN TEMP:  51; 6HR MAX TEMP:  53; 6HR PCP:  0.09;

SALT LAKE CITY CLOUDY    49  35  58 S13       29.61R
6HR MIN TEMP:  49; 6HR MAX TEMP:  54;

$$

NMZ009-TXZ055-190700-
NEW MEXICO-WEST TEXAS

CITY           SKY/WX    TMP DP  RH WIND       PRES   REMARKS
ALBUQUERQUE    PTCLDY    45  30  55 NW6       29.78F
6HR MIN TEMP:  45; 6HR MAX TEMP:  54;

EL PASO        MOCLDY    51  30  44 W21G28    29.82R
6HR MIN TEMP:  51; 6HR MAX TEMP:  66;

$$


........................KEY........................
SKY/WX - SKY CONDITION/WEATHER
TMP    - TEMPERATURE IN FAHRENHEIT
DP     - DEW POINT IN FAHRENHEIT
RH     - RELATIVE HUMIDITY IN PERCENT
WIND   - DIRECTION AND SPEED IN MILES PER HOUR (MPH)
VRB    - VARIABLE WIND DIRECTION
PRES   - MEAN SEA LEVEL PRESSURE IN INCHES OF MERCURY
         F - FALLING PRESSURE   R - RISING PRESSURE
         S - STEADY PRESSURE
VSB    - VISIBILITY IN MILES
HX     - HEAT INDEX IN FAHRENHEIT
WCI    - WIND CHILL INDEX IN FAHRENHEIT
TC     - TEMPERATURE IN CELSIUS WHICH IS ALSO KNOWN AS
         TEMPERATURE IN CENTIGRADE
AFB    - AIR FORCE BASE
         LUKE AFB IS LUKE AIR FORCE BASE
         DAVIS-MONTHAN IS DAVIS-MONTHAN AIR FORCE BASE
NAS    - NAVAL AIR STATION
         EL CENTRO NAS IS EL CENTRO NAVAL AIR STATION
N/A    - NOT AVAILABLE





USA.gov is the U.S. government's official web portal to all federal, state and local government web resources and services.